Wind_Speed
92 93 94 96 99 102 105 106 107 108 108 109 110 111 112 113 113 113 113 112 112 112 112 111 111 111 111 111 111 110 109 109 108 107 107 107 106 107 108 108 109 109 110 110 110 109 107 106 106 107 108 110 113 115 117 118 119 120 120 121 120 121 120 116 109 104 104 106 105 101 100 100 96 93 93 90 86 87 88 88 89 91 93 94 95
94 96 97 99 101 103 106 108 109 110 111 113 114 115 115 115 115 114 114 114 113 113 113 113 112 112 112 111 110 110 109 108 107 106 106 105 105 105 106 106 107 108 108 108 108 107 105 104 105 107 109 111 113 115 117 117 118 118 118 118 118 119 120 118 112 107 105 104 105 104 99 98 96 92 90 86 82 82 84 84 86 89 92 93 93
97 99 100 101 103 105 107 109 111 114 115 117 118 118 118 117 116 115 115 115 115 115 115 114 113 113 112 110 109 108 108 107 106 105 104 103 103 103 104 105 105 106 106 106 106 105 104 104 106 108 110 111 113 115 116 116 116 116 116 116 116 116 118 118 115 110 106 102 103 104 98 94 93 89 86 82 77 77 79 80 82 84 87 90 91
100 102 103 104 105 107 108 110 113 116 118 120 121 121 120 119 118 117 116 116 116 116 116 115 114 113 111 108 107 106 105 104 103 102 102 101 102 102 103 104 104 105 104 104 104 103 104 105 106 108 109 110 111 112 113 113 113 113 112 113 114 116 117 118 116 112 107 101 101 101 95 89 88 86 83 78 74 72 74 75 77 79 81 86 89
103 104 105 106 107 108 110 112 115 118 121 122 122 122 121 120 119 119 118 117 117 116 116 116 114 112 109 107 105 104 103 101 99 98 99 100 101 101 102 103 103 103 103 103 103 103 104 105 105 106 107 107 108 109 109 109 108 108 108 110 113 116 116 116 114 111 106 102 100 97 92 87 85 84 80 75 70 69 70 71 73 74 76 80 86
105 106 107 108 109 111 113 115 118 121 122 122 122 121 120 120 120 120 119 118 117 117 116 115 114 111 109 106 104 102 101 99 97 96 97 98 99 99 100 101 101 101 101 102 102 102 102 102 102 102 103 104 105 106 106 106 104 104 105 109 112 115 115 114 112 108 105 104 101 96 90 86 84 82 77 71 68 67 67 69 69 70 71 75 81
107 108 109 110 112 114 117 119 120 121 121 120 119 119 119 120 120 120 120 118 117 117 115 114 112 110 108 106 104 102 100 98 96 94 94 96 96 96 97 97 98 99 99 99 99 99 98 98 98 99 100 101 102 103 103 102 100 100 103 108 111 114 114 113 110 107 105 105 104 97 91 87 85 81 74 68 66 67 66 66 66 66 68 71 75
111 112 113 115 117 118 119 119 119 118 118 117 117 118 118 119 119 119 119 118 117 115 113 111 109 108 106 105 103 101 99 97 95 94 93 93 94 94 93 94 95 95 95 94 94 94 95 95 96 96 97 98 99 100 99 97 96 97 100 105 109 112 112 110 108 105 103 103 102 96 90 87 84 78 72 67 66 67 65 62 62 64 66 67 70
115 117 117 118 119 118 118 117 116 116 116 116 116 116 117 118 118 118 117 116 115 113 111 109 107 105 105 104 103 101 98 96 94 92 92 92 92 91 91 91 90 90 89 89 90 91 92 93 93 93 95 96 97 97 96 95 96 97 100 104 108 109 108 106 103 100 99 97 96 92 86 84 82 75 71 67 64 66 65 60 58 62 65 66 68
118 119 118 117 116 115 115 115 114 114 114 114 115 115 115 116 116 115 114 113 111 109 107 106 104 103 102 101 101 99 96 93 91 90 90 90 89 88 87 87 86 85 85 86 87 89 90 90 90 92 94 95 95 95 95 95 96 99 103 106 109 109 106 103 100 97 93 89 88 86 82 81 79 73 70 66 62 63 64 60 56 58 64 66 67
117 116 115 114 113 113 113 113 113 113 113 113 113 113 114 114 113 112 110 108 106 103 102 101 100 99 99 98 97 95 93 91 89 88 87 86 85 83 83 82 82 82 83 84 86 87 88 88 90 91 93 93 93 93 93 94 96 99 103 106 109 109 106 102 100 95 88 81 79 79 78 77 76 71 68 65 61 61 63 60 56 56 62 65 66
112 111 111 111 111 111 111 111 111 111 110 110 110 110 110 110 109 107 104 101 98 97 96 96 95 95 95 95 94 93 91 88 86 85 83 82 81 79 80 80 80 81 82 84 86 87 87 88 90 92 92 92 92 92 92 93 95 99 102 105 106 106 104 102 99 93 84 77 74 73 74 74 73 71 68 62 60 61 61 58 55 55 60 64 66
108 108 108 108 108 108 108 108 108 108 108 108 108 107 106 104 101 99 97 95 94 94 94 94 93 93 93 93 93 92 91 89 86 84 82 81 80 79 79 80 80 81 83 84 87 88 88 89 90 90 91 91 91 92 92 93 94 97 100 103 103 103 101 101 100 93 84 78 73 71 72 71 70 71 68 60 57 61 60 56 54 54 59 64 66
105 105 105 105 105 105 106 106 106 106 105 104 103 102 101 99 98 96 95 94 95 95 95 95 94 94 94 94 94 93 92 90 88 86 84 82 81 80 80 80 80 82 84 86 89 89 90 90 89 88 89 90 92 92 93 94 94 96 98 99 100 99 97 98 98 93 86 80 73 70 69 68 67 70 68 59 54 59 60 54 51 53 58 64 66
104 104 104 103 103 104 105 105 105 104 103 101 99 97 97 96 96 96 96 96 96 97 97 97 96 96 95 95 94 94 92 91 89 87 86 84 83 83 82 82 82 84 86 89 91 91 91 91 88 86 87 90 92 94 95 96 95 95 96 96 96 96 94 94 94 91 85 80 73 69 68 66 64 66 68 60 52 56 58 52 49 53 58 63 66
106 106 106 105 105 106 106 106 105 103 101 99 97 96 95 95 95 96 96 97 97 98 98 98 98 98 97 96 96 95 94 93 91 90 88 87 86 85 84 83 84 86 88 91 92 92 92 89 87 86 87 89 92 94 96 97 97 96 94 92 92 92 91 91 91 88 83 77 72 69 67 65 63 63 65 60 52 54 55 49 49 53 57 62 66
112 112 111 110 109 109 108 106 104 101 99 97 96 95 95 95 96 96 96 97 98 98 98 99 99 99 99 98 98 98 97 96 94 93 91 90 88 87 86 86 87 88 89 91 92 92 91 89 87 87 87 89 91 94 96 98 98 96 92 89 89 89 87 86 86 85 80 74 69 67 65 64 63 61 61 58 53 53 51 46 49 53 56 62 65
117 117 115 113 112 111 109 106 102 100 98 96 95 95 95 96 96 96 97 97 97 98 98 99 100 100 100 100 100 99 99 98 97 95 94 92 90 89 89 89 88 88 88 90 91 90 89 88 88 89 88 89 92 94 96 99 98 94 90 86 85 84 82 81 81 80 77 72 68 64 63 62 60 59 58 55 52 52 47 45 49 53 55 62 64
118 117 115 113 112 110 107 104 102 99 98 96 95 95 96 96 96 96 96 97 97 97 97 98 99 100 100 100 99 99 99 99 98 97 95 94 92 91 91 90 88 87 87 88 88 88 87 88 89 90 90 90 92 93 96 99 97 92 87 85 82 79 76 76 76 74 71 70 66 63 61 60 57 57 56 52 51 50 45 44 50 53 56 61 61
118 117 114 112 110 108 106 104 103 101 99 97 97 96 96 96 95 95 96 96 96 96 96 97 98 99 99 99 99 99 99 98 98 97 96 95 93 92 91 90 87 86 86 86 86 85 85 86 88 90 89 90 91 93 96 99 97 91 86 83 81 76 71 71 71 70 67 66 64 61 60 58 54 53 53 51 49 47 43 45 51 54 57 59 58
116 114 112 110 108 107 106 105 104 103 101 100 99 98 96 96 96 95 96 96 95 95 96 97 97 98 98 98 98 98 98 98 97 97 96 94 93 92 91 89 86 85 84 84 84 82 82 84 85 86 86 88 90 92 95 97 95 88 83 82 80 74 69 67 67 67 65 63 62 59 57 55 52 50 50 49 47 44 43 47 52 55 56 57 57
113 111 110 109 108 107 107 106 105 105 104 103 101 100 98 98 97 97 96 95 95 95 95 96 97 97 98 98 98 98 98 97 96 95 94 94 93 91 90 88 86 84 82 82 81 80 81 81 81 82 83 85 87 91 94 95 91 85 81 81 79 73 68 66 65 63 62 61 59 57 54 52 50 48 47 47 44 42 44 49 54 55 55 56 56
110 110 109 109 108 108 107 107 106 105 105 105 104 102 100 99 99 98 97 96 95 95 96 96 97 97 98 98 98 98 97 96 95 94 93 93 92 90 88 87 85 82 81 79 79 79 80 79 79 79 81 83 85 89 92 92 87 81 77 78 77 72 67 66 64 62 60 58 55 53 51 49 47 46 45 44 42 42 45 51 54 54 54 54 55
110 110 110 109 108 107 107 106 106 105 106 106 105 103 101 100 100 99 97 96 95 95 96 96 97 97 98 98 97 97 96 94 93 92 92 91 90 89 88 86 83 81 79 79 78 79 79 78 78 79 80 82 84 87 90 89 84 79 75 75 75 72 68 65 63 60 58 56 52 50 48 46 45 44 43 42 41 42 47 52 54 53 52 53 54
111 111 110 109 108 107 106 106 106 105 105 105 104 103 101 101 100 99 97 96 95 96 96 96 96 97 97 97 96 95 94 93 92 91 91 90 89 88 86 84 81 80 79 79 79 79 79 78 78 79 80 82 84 87 88 86 82 79 76 72 71 72 69 65 62 59 56 53 50 47 46 44 43 42 42 40 40 43 47 51 52 50 50 51 53
113 112 110 109 108 106 105 105 105 104 104 103 103 102 100 99 99 98 97 96 96 95 95 95 95 96 95 95 94 93 92 91 91 91 90 90 89 87 84 82 80 80 80 81 81 81 81 80 79 80 81 83 85 86 86 84 80 77 74 69 67 68 67 63 59 57 54 51 48 45 43 42 41 41 40 39 40 43 48 50 49 47 48 50 53
113 112 110 109 107 106 105 104 103 102 102 101 101 99 98 97 96 96 96 96 95 94 94 94 94 94 93 93 92 91 90 90 90 90 90 89 88 86 84 82 81 81 81 82 83 83 83 82 81 81 82 84 86 86 84 81 79 76 72 66 63 65 65 60 55 54 52 49 46 43 42 41 40 39 39 38 40 43 47 48 45 44 47 50 53
113 111 109 107 106 104 103 102 101 100 100 99 98 96 95 95 94 95 95 94 93 92 93 93 93 92 92 91 91 90 89 90 90 90 90 89 87 85 84 83 82 81 82 82 83 84 84 83 81 81 82 84 85 84 81 79 79 77 71 64 60 62 63 58 52 50 50 47 44 42 40 40 40 38 37 38 39 42 46 46 43 43 46 50 54
111 109 107 105 103 102 101 100 99 98 97 97 96 94 93 92 93 93 93 92 91 91 91 92 92 92 91 91 90 90 89 90 90 90 90 88 86 85 84 83 82 82 82 82 83 83 83 82 80 80 82 84 84 81 78 76 77 76 72 65 60 59 60 57 52 48 47 45 43 40 39 39 39 37 36 37 39 42 45 44 41 42 47 51 55
108 107 105 103 101 99 97 96 96 96 95 94 94 92 91 90 90 91 91 90 90 89 90 91 91 91 92 92 91 90 89 90 90 91 90 88 86 85 83 82 82 82 82 83 82 81 80 80 79 80 82 83 82 78 74 73 73 73 71 67 61 58 57 56 51 48 45 43 41 39 39 39 37 35 35 37 39 42 44 43 41 42 48 53 56
105 104 102 100 98 97 95 94 93 93 93 93 92 90 89 88 89 89 89 89 88 89 90 90 91 91 92 92 91 90 89 89 90 91 91 90 88 86 84 83 82 82 83 83 83 81 79 78 79 80 82 83 80 75 70 69 70 69 68 66 62 58 55 53 50 47 44 42 40 38 38 38 36 35 35 36 39 42 43 42 41 43 49 54 56
102 101 100 99 97 95 93 92 91 91 92 92 91 89 87 87 88 88 88 88 88 89 90 90 90 91 93 93 92 90 89 90 90 92 92 92 90 87 85 84 83 83 83 83 81 80 78 78 79 80 81 81 77 71 67 67 67 66 64 63 61 58 54 51 49 46 43 41 39 37 38 38 36 35 35 36 39 42 43 41 41 44 50 54 56
99 99 98 97 96 95 93 92 91 91 91 91 91 89 87 87 88 88 88 89 89 90 91 90 90 91 92 94 94 93 92 92 92 93 93 93 91 89 87 85 84 84 83 82 80 78 78 79 80 80 79 77 72 67 65 66 65 63 61 60 59 57 53 49 47 44 42 40 38 37 37 37 36 35 36 37 39 42 42 41 42 46 50 54 56
97 97 97 96 96 95 93 93 92 92 92 92 91 90 89 89 89 89 90 90 91 92 92 91 91 91 92 94 95 95 94 94 95 95 95 94 92 90 88 86 84 82 81 79 78 77 77 78 80 80 78 75 70 65 64 65 63 60 59 58 56 55 53 49 45 42 41 39 37 36 36 36 36 36 36 37 40 42 42 41 44 48 51 53 55
97 98 97 96 95 94 94 95 94 93 93 93 92 92 91 90 91 92 93 93 93 93 93 93 92 92 94 96 97 97 96 96 97 98 97 96 93 91 89 87 84 82 79 77 76 76 77 79 80 80 77 74 68 64 63 63 61 58 56 55 54 53 51 47 43 40 39 38 36 35 36 36 36 37 37 38 41 42 41 43 46 49 50 52 54
99 99 99 98 96 95 95 96 96 95 95 94 94 94 93 91 91 94 96 97 96 96 96 95 94 94 96 98 100 99 99 99 100 100 99 97 94 92 90 88 85 83 80 78 78 78 79 80 80 80 76 72 66 63 62 62 59 55 53 53 52 51 49 46 42 39 37 36 35 35 36 36 37 38 38 39 40 41 41 44 48 49 50 50 53
100 101 101 100 99 99 98 97 97 97 97 96 96 96 95 94 93 95 98 100 100 99 99 97 96 96 98 101 102 101 101 102 102 102 100 98 95 93 91 89 86 84 82 80 80 80 81 81 80 79 75 69 64 63 62 60 57 53 51 50 49 49 47 44 40 37 36 35 34 35 36 36 37 38 39 40 40 40 42 45 48 49 49 49 52
102 102 103 103 103 103 102 101 100 100 100 100 99 99 99 98 96 97 100 101 102 102 102 101 99 100 102 103 104 103 103 104 104 103 101 99 98 96 93 91 88 85 83 82 81 81 81 80 79 77 73 67 63 62 62 60 55 51 49 47 47 46 45 42 39 36 35 34 34 35 36 37 38 39 39 39 40 41 43 46 48 49 49 50 53
102 103 104 105 106 106 106 105 104 103 103 103 103 103 102 101 100 99 101 102 103 103 103 103 103 103 105 106 105 105 105 105 104 103 101 100 99 97 95 92 88 85 83 81 81 80 80 79 78 75 70 65 62 61 60 58 54 50 47 46 45 44 42 40 38 35 34 33 34 35 36 37 38 39 39 39 40 42 43 45 48 49 50 52 56
102 103 104 106 107 107 107 107 107 106 106 105 105 105 104 103 102 102 102 103 104 104 105 105 106 107 107 107 107 107 107 106 105 103 102 100 99 96 94 90 87 84 82 80 79 79 78 78 76 74 69 64 61 61 59 56 52 48 45 44 43 42 40 39 36 34 33 32 33 34 36 37 38 39 39 40 41 43 44 46 49 51 52 55 59
101 102 103 105 105 106 106 107 108 108 107 107 106 105 105 104 104 104 104 104 105 106 107 108 108 109 109 109 109 109 108 107 105 104 102 100 99 96 92 89 85 83 81 80 78 77 77 76 75 72 67 63 61 60 59 55 51 47 44 42 42 41 39 37 35 33 32 32 33 35 36 37 38 39 39 41 43 44 45 47 50 53 55 57 61
98 99 101 102 103 103 104 106 106 107 107 106 105 104 105 105 105 105 105 106 106 108 109 109 110 110 110 110 110 109 108 106 105 104 102 101 98 95 92 88 85 83 81 79 78 76 76 75 73 69 66 63 61 60 58 54 49 45 42 41 40 39 37 36 34 32 32 32 34 35 36 37 38 39 40 42 44 45 46 49 52 54 56 58 61
95 97 99 100 101 102 103 104 104 105 105 104 104 104 104 105 105 105 106 106 107 108 109 109 110 110 110 109 109 108 107 106 104 103 102 100 98 95 91 88 85 82 80 78 76 74 75 75 72 67 63 61 60 58 57 53 48 43 41 40 39 38 36 34 33 32 32 33 34 35 36 38 38 39 41 44 45 46 48 51 53 54 56 58 61
94 95 97 98 99 100 100 101 102 102 103 103 103 103 104 104 105 105 106 106 107 108 108 109 109 109 108 108 107 106 106 105 103 102 100 98 95 93 90 88 85 81 78 75 74 73 73 73 70 65 62 60 57 56 55 52 47 42 40 39 38 37 35 33 32 31 32 34 35 36 37 38 39 41 43 45 46 48 50 52 53 55 57 59 61
91 92 94 95 96 97 97 98 99 100 100 101 101 102 103 103 104 104 105 105 106 106 107 107 107 107 107 106 106 106 105 104 103 101 99 96 93 90 88 86 83 79 76 73 72 72 71 70 67 64 62 60 56 53 52 49 45 41 39 38 37 36 35 32 31 31 32 34 35 36 37 38 40 42 45 46 48 49 51 52 54 56 59 61 62
87 88 89 90 91 92 93 94 95 96 97 98 99 100 101 101 102 102 103 104 104 104 105 105 105 105 105 105 105 105 104 103 102 100 97 93 91 88 85 83 80 76 74 72 71 70 68 67 64 62 60 59 55 52 49 47 43 40 38 37 36 35 34 32 30 31 33 35 36 37 38 39 41 44 47 48 49 51 52 53 55 58 61 63 64
83 84 85 86 87 88 89 90 91 92 93 95 96 97 98 98 99 100 101 101 102 102 103 103 104 104 104 104 104 103 103 102 100 98 94 91 88 85 82 80 77 74 72 71 69 67 65 63 61 59 59 57 54 50 47 45 42 39 38 36 34 34 33 31 30 31 33 35 37 38 38 40 43 46 48 50 51 53 54 55 58 61 63 65 66
80 81 82 83 84 86 87 88 89 89 90 92 93 94 94 95 96 97 98 99 100 100 101 101 102 102 102 102 102 101 101 100 98 95 92 89 86 82 79 77 74 72 70 69 67 65 62 59 58 57 57 55 51 48 46 43 40 38 37 35 33 33 32 31 30 31 34 36 37 38 39 41 45 48 50 52 53 55 56 58 60 63 65 67 68
78 79 80 81 82 83 84 85 86 87 88 88 89 90 91 92 93 94 95 96 97 98 98 99 99 99 99 99 99 99 98 97 94 92 89 86 82 79 77 74 72 70 68 67 65 62 59 56 55 55 54 52 49 46 44 41 39 37 36 34 32 32 32 31 31 32 35 37 38 39 41 43 47 50 52 54 55 57 59 61 63 65 67 69 70
75 76 77 78 79 80 81 82 83 83 84 85 86 88 89 90 91 92 93 93 94 95 95 96 96 97 97 97 97 96 95 93 90 88 85 82 79 77 74 71 69 68 67 65 63 59 56 54 53 53 51 49 47 45 43 40 38 36 35 34 31 31 31 31 31 33 36 38 39 40 42 45 49 52 54 56 58 59 61 64 66 68 70 71 73
71 72 73 74 75 76 77 78 79 80 82 83 84 85 86 87 88 89 90 90 91 92 92 93 93 94 94 94 93 92 90 88 86 84 82 79 76 73 70 68 66 66 65 62 59 56 52 51 51 51 49 47 45 44 42 39 36 35 35 33 31 31 31 31 32 34 37 39 41 42 44 47 51 54 56 58 60 62 64 67 69 71 73 74 75
Wind_Direction
284 285 286 288 289 291 291 292 292 292 293 294 294 295 296 297 297 297 297 296 296 296 296 296 296 296 296 295 294 294 293 292 292 292 291 291 292 292 292 292 292 292 292 292 292 292 293 292 292 292 291 290 290 289 290 290 290 290 291 292 292 293 293 294 295 295 293 291 290 288 287 286 284 282 279 275 272 269 266 262 259 256 253 250 248
284 285 286 287 288 290 291 292 292 292 292 293 294 295 295 296 296 296 295 295 295 295 295 296 296 296 295 295 294 294 293 292 292 292 292 292 291 291 291 291 291 291 291 291 292 292 292 292 291 291 290 289 289 289 289 289 289 290 290 291 291 291 292 293 294 295 295 293 291 290 289 287 285 282 279 275 272 268 265 260 255 252 251 249 246
283 284 285 286 287 288 290 291 291 292 292 293 294 294 294 295 294 294 294 294 295 295 295 295 295 295 295 294 294 293 292 292 292 292 292 291 291 291 291 291 291 291 291 291 291 292 292 291 290 289 288 288 287 288 288 288 289 290 290 291 291 291 291 292 294 295 295 295 292 290 290 288 286 283 279 276 272 268 264 259 254 249 247 246 244
283 283 284 285 286 287 289 290 290 291 292 293 293 294 294 294 294 293 294 294 294 294 294 294 294 294 294 294 292 292 291 291 291 291 291 291 291 291 291 291 290 290 291 291 291 291 290 289 288 287 286 286 287 287 288 288 289 290 291 291 291 290 291 291 293 295 296 296 293 292 292 290 286 284 280 277 272 267 262 258 253 248 243 242 241
283 284 285 286 287 287 288 289 290 291 291 292 293 293 293 293 293 293 293 293 293 293 294 294 294 294 294 293 292 291 291 291 291 290 290 290 290 290 291 291 291 291 291 291 290 289 288 287 286 286 286 286 287 287 288 289 290 290 290 290 290 290 290 291 293 295 297 296 294 293 294 291 288 285 282 278 273 267 261 256 252 248 243 239 237
284 285 285 286 287 287 288 289 289 290 290 291 291 292 292 292 292 292 292 292 292 292 293 293 294 294 293 293 292 292 292 292 291 290 290 289 289 289 289 290 290 290 289 289 288 286 286 285 285 286 286 287 287 288 288 289 290 290 290 289 289 290 291 293 295 297 298 297 296 296 296 293 290 287 283 278 274 267 260 255 252 249 244 239 235
285 285 286 287 287 288 288 288 289 289 289 289 290 290 290 291 291 291 291 291 291 292 292 293 293 293 293 293 293 292 292 292 291 290 289 288 288 288 288 288 288 288 287 286 285 285 285 285 286 286 287 288 288 289 290 291 291 292 291 291 291 292 293 295 296 298 298 297 296 296 296 293 290 287 283 279 274 267 259 255 253 249 244 240 235
286 287 287 287 287 287 287 287 287 288 288 288 288 289 289 289 289 290 290 290 291 291 292 292 292 292 292 292 292 292 292 292 291 290 288 288 288 288 287 287 287 286 286 285 285 285 286 286 287 288 289 289 290 290 291 292 292 291 291 291 291 291 292 294 295 296 296 295 295 295 295 292 289 286 283 279 273 267 260 255 253 250 245 239 235
286 286 286 286 286 286 286 286 286 286 287 287 288 288 288 288 288 288 289 289 290 290 291 291 291 291 291 291 291 291 291 291 290 289 288 288 288 287 287 287 286 286 286 286 287 287 287 288 289 291 292 292 292 292 292 292 292 291 290 289 289 290 291 293 294 294 293 293 293 294 293 291 288 286 282 278 272 267 262 254 251 251 247 239 233
285 285 285 285 285 285 285 285 286 286 287 287 287 287 287 287 287 287 288 288 288 289 289 289 289 289 288 289 289 290 290 290 290 289 288 288 287 287 287 287 287 287 288 289 290 290 290 291 293 294 294 293 293 293 293 293 293 293 292 291 291 292 294 295 295 293 292 292 293 293 292 290 287 285 281 277 271 266 262 256 250 249 248 242 234
285 285 285 285 285 285 285 285 286 286 286 286 286 286 286 286 286 286 286 286 286 286 286 286 287 287 287 288 289 290 290 291 291 290 289 288 288 288 288 289 289 290 291 292 292 293 294 295 296 295 295 294 294 293 294 294 295 294 294 293 294 295 297 297 296 294 293 294 294 293 291 288 286 284 279 275 270 265 261 256 250 247 247 243 236
284 284 284 285 285 285 285 285 285 285 285 285 285 285 285 286 286 286 286 286 285 285 285 285 286 287 288 289 290 290 291 291 291 291 291 290 290 290 291 291 293 294 295 295 295 295 297 297 297 296 295 295 294 294 294 295 295 295 295 295 295 297 299 299 297 296 296 297 296 294 291 288 286 283 278 273 269 265 260 255 250 246 244 242 238
285 285 285 284 284 284 285 285 285 285 285 285 285 285 286 286 286 287 288 288 288 287 287 287 288 289 290 291 292 292 292 292 292 292 292 292 292 293 293 294 296 297 297 297 297 298 298 298 297 296 296 295 294 295 295 295 295 295 295 296 297 298 300 300 298 297 298 298 297 295 292 288 286 282 278 273 269 265 260 254 250 245 241 240 238
286 286 285 285 285 285 285 286 286 286 287 288 288 289 289 290 290 290 290 290 290 290 290 290 291 291 292 292 293 293 293 293 293 293 294 294 294 295 296 297 299 300 300 300 299 299 299 297 297 297 296 296 296 296 295 295 294 294 295 296 297 298 299 299 297 298 298 298 297 295 291 288 284 281 278 273 268 265 261 255 249 243 240 239 237
288 288 287 287 287 288 288 288 289 290 290 290 291 291 291 292 292 292 292 292 291 291 291 292 292 292 292 293 293 293 294 294 294 295 295 296 297 297 298 300 301 302 302 301 300 299 298 297 297 297 297 297 298 297 296 295 294 294 295 296 298 299 299 298 297 297 297 297 296 294 290 286 282 280 277 274 268 264 261 255 248 242 238 237 235
291 290 290 290 290 290 290 291 291 292 291 291 291 291 291 291 291 291 290 291 291 291 292 292 292 293 293 294 294 294 295 295 296 296 297 298 298 299 300 302 302 302 301 300 299 299 298 298 298 298 298 298 298 298 296 295 294 295 296 298 299 299 299 298 297 296 295 295 294 292 288 285 281 278 276 274 269 263 260 254 246 241 236 235 235
292 292 292 292 292 292 292 292 292 291 291 291 291 291 291 291 290 290 290 291 291 292 292 293 293 294 294 295 295 295 296 297 297 297 298 298 299 300 301 302 301 301 300 300 299 299 299 300 299 299 299 299 299 298 296 295 295 296 297 299 300 300 299 297 296 294 294 294 292 289 286 284 281 277 275 273 269 263 258 252 245 239 235 234 234
291 291 291 292 292 292 292 291 291 290 290 290 290 290 290 290 290 290 290 291 291 291 292 293 293 293 294 294 295 295 296 297 297 297 298 299 300 301 301 300 300 300 300 300 300 300 301 301 300 300 300 300 299 298 297 295 295 297 299 300 300 300 298 296 294 293 294 293 291 288 285 282 280 277 274 271 267 262 257 249 244 239 234 233 232
290 290 291 292 292 291 291 291 290 290 289 289 289 289 289 289 290 290 290 290 290 291 291 291 291 292 292 293 294 294 295 295 296 297 297 298 299 299 299 299 299 300 300 300 300 300 301 301 301 301 301 301 299 298 297 296 296 298 300 300 300 299 298 296 294 293 294 293 290 287 284 281 279 276 274 270 264 260 255 247 242 238 233 233 231
290 290 291 291 291 291 290 290 290 290 289 289 290 290 290 290 290 290 290 290 290 290 290 290 291 291 292 292 292 293 293 294 294 295 296 297 298 297 297 298 300 300 301 300 300 300 300 300 301 301 302 301 300 299 298 297 297 299 301 301 300 299 298 297 295 295 294 292 289 286 283 281 279 275 272 268 263 259 253 246 241 236 233 232 229
289 290 290 290 290 290 290 290 290 290 291 291 291 290 290 290 290 290 290 290 290 291 291 291 291 291 291 291 291 291 291 292 293 294 296 296 296 297 298 299 300 301 301 300 299 299 299 300 301 302 302 301 301 299 298 297 298 300 303 302 301 301 299 298 296 296 294 292 289 286 283 281 278 273 269 265 261 256 250 244 239 235 232 230 226
288 289 289 289 289 289 290 290 291 291 292 292 292 291 291 291 291 291 290 291 291 291 291 290 290 290 290 290 290 290 291 292 293 294 295 295 296 297 299 300 300 301 300 299 299 299 299 300 302 302 302 301 301 299 298 297 298 302 304 303 302 301 301 299 298 296 294 291 289 286 283 280 276 271 266 263 259 253 247 242 238 234 231 227 224
287 287 287 288 288 289 289 290 291 291 291 291 291 291 292 291 291 290 291 291 291 290 290 289 289 289 289 289 290 290 291 292 293 294 294 295 296 298 299 300 300 300 300 299 299 300 301 303 304 304 303 302 301 300 298 298 299 302 304 303 302 302 301 300 299 297 294 291 289 286 282 278 273 269 265 261 256 250 243 240 237 233 229 225 222
286 286 286 287 287 288 288 289 289 290 290 290 290 291 291 291 290 290 291 291 290 290 290 289 289 289 289 289 290 291 292 293 294 294 295 296 297 298 299 300 300 300 300 301 302 302 304 305 306 305 304 303 302 301 299 299 301 304 305 304 303 303 302 301 299 297 294 291 288 285 280 276 271 268 264 259 253 246 240 238 236 232 227 223 220
285 285 286 286 287 287 287 288 288 288 289 289 290 290 290 290 290 291 291 291 290 290 290 289 289 289 289 290 291 292 293 293 294 295 295 297 298 299 300 300 301 301 302 303 304 305 306 308 307 307 306 305 304 302 301 302 304 305 304 304 303 302 301 301 299 296 294 291 288 284 279 274 270 266 262 256 249 243 239 237 234 230 226 222 218
285 285 285 285 286 286 286 287 287 287 288 288 288 289 289 289 290 290 290 290 289 289 289 289 289 289 290 291 292 292 293 294 295 295 296 297 298 299 300 301 302 303 305 306 307 308 309 309 309 309 308 307 305 303 302 302 304 303 303 302 301 300 299 299 298 296 293 291 287 283 277 273 269 264 259 253 247 241 238 236 233 229 225 220 216
284 284 284 285 285 285 285 285 285 286 286 286 287 287 288 288 288 288 289 289 289 289 289 289 289 290 290 291 292 293 294 295 295 296 297 298 299 300 301 302 304 305 306 307 308 309 310 311 311 310 309 307 305 303 303 303 304 302 302 302 301 299 298 298 297 295 293 290 286 281 276 271 267 262 257 250 244 240 238 235 231 226 223 219 215
283 283 283 283 284 284 284 284 284 284 284 284 285 285 286 287 287 287 287 288 288 289 289 289 290 290 291 292 293 294 295 295 296 296 297 298 299 301 302 303 305 306 307 308 309 310 311 311 311 311 310 307 305 303 304 305 304 303 302 302 302 300 298 297 296 294 292 289 285 279 274 270 265 260 254 248 243 240 238 234 228 224 221 218 214
281 282 282 282 282 282 282 282 283 283 283 283 284 285 285 286 286 287 287 288 288 289 289 289 290 291 292 293 294 294 295 295 296 296 297 298 299 301 302 304 305 306 307 308 309 310 310 311 311 311 309 307 304 304 305 306 305 303 302 303 302 300 298 297 296 294 291 288 283 278 272 267 262 257 251 246 242 239 237 232 225 221 219 217 213
280 281 281 281 281 281 281 282 282 283 283 284 284 285 285 286 286 286 287 287 288 288 289 289 290 291 292 293 293 294 295 295 295 296 297 298 300 301 303 305 306 307 308 308 309 310 310 311 311 311 309 306 304 304 306 306 304 302 302 302 302 300 298 296 295 294 290 286 281 276 270 264 259 254 248 244 240 238 236 230 222 218 218 216 212
279 280 280 280 281 281 281 282 283 283 284 284 284 285 285 286 286 286 287 287 288 288 289 289 290 291 291 292 293 294 294 294 295 296 298 299 301 302 304 306 307 307 308 309 310 310 311 311 312 312 309 305 303 304 305 304 302 301 301 301 301 300 297 295 294 292 289 284 279 274 268 262 256 250 246 242 238 236 234 228 219 216 216 216 212
279 279 280 281 281 282 282 283 283 283 283 284 284 285 285 286 286 286 287 287 288 288 288 289 290 290 291 292 293 294 294 295 295 297 298 300 302 303 305 306 307 308 309 309 310 310 311 312 313 311 308 304 302 304 305 303 300 300 300 300 299 298 296 294 293 291 287 283 277 271 265 259 253 247 243 239 236 234 232 226 218 214 215 215 212
278 279 280 280 281 282 283 283 283 283 283 284 284 285 285 285 286 286 287 287 287 287 288 289 289 290 291 292 293 294 295 295 296 297 298 300 302 304 305 306 307 308 308 309 310 311 312 312 312 310 306 302 302 305 305 302 300 299 300 299 298 297 295 293 291 289 285 280 275 268 261 256 251 245 240 236 234 233 230 224 217 214 214 213 211
275 276 277 279 280 281 282 283 283 283 283 284 285 285 285 286 286 286 286 286 286 287 288 288 289 290 291 291 292 293 294 295 296 297 298 300 302 304 305 306 307 307 308 309 310 312 312 312 311 309 305 303 303 306 305 301 299 299 299 298 296 294 293 292 290 287 283 278 272 264 258 253 248 243 238 234 232 231 227 221 215 213 212 212 210
272 273 275 276 278 279 280 281 281 282 282 283 283 284 284 285 285 285 285 286 286 286 287 288 289 290 290 291 291 293 294 295 296 297 299 301 302 304 305 306 307 308 309 310 312 313 313 313 311 309 305 303 304 305 303 300 299 299 299 297 294 292 291 290 288 285 280 275 268 260 254 250 245 241 236 232 230 229 225 219 214 212 210 209 207
270 272 273 274 275 276 277 278 278 279 280 280 281 281 282 282 283 283 284 285 285 286 287 288 289 289 290 290 291 292 294 295 296 298 299 301 303 304 305 306 308 309 310 312 313 314 313 312 310 307 304 303 304 305 302 299 299 299 297 295 293 291 289 288 286 282 277 271 264 256 251 247 243 239 234 230 228 226 222 218 214 211 208 206 204
269 270 271 272 273 273 274 274 275 276 276 277 278 278 279 280 280 281 281 283 284 285 286 287 288 289 289 289 290 292 293 294 296 298 299 301 303 304 306 307 308 309 311 312 313 314 313 311 309 306 303 304 305 304 301 299 299 299 296 293 291 290 288 286 284 279 274 267 259 252 247 244 241 237 232 229 226 223 219 216 213 209 206 203 200
268 269 269 270 271 271 272 272 272 273 274 275 275 276 277 278 278 279 279 281 283 284 285 286 287 287 287 288 290 291 293 294 296 298 299 301 303 304 305 307 308 309 311 312 313 313 312 309 307 304 303 304 305 303 300 299 299 298 295 292 289 288 286 284 281 276 270 262 254 248 244 242 239 235 231 227 223 220 217 214 212 208 203 199 198
267 267 268 268 269 269 270 271 271 272 272 273 274 275 276 277 277 278 278 280 281 282 283 285 285 286 286 288 289 291 293 294 296 298 299 301 302 303 305 306 307 309 310 312 312 312 310 308 305 303 304 305 304 301 299 298 299 298 295 291 288 286 284 282 278 273 266 257 249 244 241 239 237 234 229 224 220 217 214 211 209 205 200 197 197
266 266 266 266 267 268 269 270 270 271 271 272 273 274 275 276 277 277 278 279 280 281 282 283 284 285 286 288 290 291 292 294 296 297 299 300 301 302 303 305 307 309 310 311 311 311 308 306 304 303 304 305 303 300 298 298 298 297 293 290 287 285 282 279 275 269 261 252 244 240 238 237 235 231 226 221 217 214 211 208 206 203 199 196 196
265 265 265 266 267 268 268 269 269 270 271 272 272 273 274 275 276 276 277 278 279 280 281 282 283 284 286 288 289 290 291 293 295 296 297 299 300 301 303 305 307 309 310 311 311 309 307 304 303 303 304 304 302 299 297 297 297 295 292 289 285 283 280 276 271 265 256 247 240 236 234 234 232 229 223 218 214 210 207 205 204 202 198 196 196
265 266 266 266 267 267 268 268 269 270 271 272 273 273 274 274 275 276 277 277 278 279 280 281 283 284 285 286 288 289 291 292 294 295 296 298 299 300 302 304 307 308 309 310 309 307 305 303 301 302 304 303 301 298 297 296 296 294 291 287 284 281 277 273 267 260 251 242 236 232 231 231 229 225 220 215 211 207 204 203 202 201 198 196 196
265 265 265 266 266 266 267 267 268 269 271 271 272 273 273 274 275 275 276 276 277 278 279 281 282 283 284 286 287 289 290 291 293 294 296 297 298 300 302 304 306 308 308 308 307 305 303 301 301 302 302 301 299 297 296 295 295 293 289 285 282 278 274 269 262 254 246 238 232 229 228 228 225 221 217 213 209 204 201 201 201 199 197 196 195
264 264 264 265 265 266 266 267 268 269 270 271 271 272 273 273 274 274 275 276 277 278 279 280 281 282 284 285 287 288 289 291 292 293 295 296 298 300 302 304 306 307 307 306 305 303 301 300 300 301 301 298 296 295 294 293 293 291 287 283 280 276 271 265 257 249 241 234 229 227 226 224 221 217 214 211 206 202 200 200 199 197 195 194 193
265 265 265 265 266 266 267 267 268 268 269 270 270 271 271 272 273 273 274 275 276 277 278 279 280 282 283 284 286 287 288 290 291 293 294 296 298 300 302 304 305 306 306 305 303 301 300 299 300 301 299 296 295 294 292 291 290 289 286 281 277 272 267 260 252 244 236 230 227 225 223 220 217 214 212 209 205 201 199 198 197 195 193 192 191
265 265 265 266 266 266 266 267 267 268 268 268 269 269 270 271 272 272 273 274 275 276 277 279 280 281 282 284 285 286 288 289 290 292 294 296 298 300 302 303 304 304 304 303 301 299 299 299 299 299 297 295 294 293 291 289 288 287 283 279 274 268 263 256 247 239 232 227 224 223 221 217 212 210 209 207 203 200 197 196 195 194 192 190 189
265 265 265 265 265 265 265 265 265 266 266 267 267 268 269 270 271 272 273 274 275 276 277 278 279 280 282 283 284 285 287 288 289 291 293 296 298 300 301 302 303 303 302 300 298 298 298 298 298 296 294 293 292 291 289 287 286 284 280 275 270 264 258 251 243 234 228 224 222 221 218 213 209 207 206 205 202 199 197 195 194 193 191 189 188
265 265 264 264 264 264 264 264 264 265 265 266 267 268 269 270 270 271 272 273 274 275 276 277 278 280 281 282 283 285 286 287 289 291 294 296 298 299 300 301 302 301 300 298 297 296 297 297 295 293 291 290 290 289 287 285 284 281 277 272 266 259 253 247 239 230 225 222 220 218 215 210 206 205 204 202 201 199 196 194 194 193 191 189 188
265 265 264 264 264 264 265 265 265 266 266 266 267 268 268 269 270 271 271 272 273 274 276 277 278 279 280 282 283 284 285 287 289 292 294 296 297 299 299 300 300 299 297 296 295 296 296 295 293 291 289 288 288 286 285 283 281 278 273 268 261 254 249 243 235 227 222 219 218 216 212 207 205 203 202 201 200 198 196 194 193 192 190 189 188
265 265 265 265 265 265 265 265 265 266 266 266 267 267 268 268 269 270 271 272 273 274 275 276 278 279 280 281 282 284 286 288 290 292 294 295 297 298 299 299 298 297 295 294 294 295 295 294 291 288 287 286 285 284 283 281 278 274 269 264 257 250 245 240 232 225 220 217 216 213 209 205 203 202 201 199 199 198 196 193 192 191 190 189 189
265 265 265 265 265 265 265 265 265 265 266 266 266 267 268 269 269 270 271 272 273 274 275 276 277 278 280 281 283 285 287 289 291 293 294 295 296 297 298 297 296 294 293 293 294 294 293 291 288 286 285 284 283 282 280 278 274 270 265 260 253 247 242 237 230 223 218 215 214 211 207 203 202 201 200 199 198 197 195 193 191 191 190 190 189
Height
10534 10531 10529 10525 10519 10513 10506 10502 10499 10496 10493 10490 10488 10485 10482 10478 10473 10469 10465 10461 10457 10453 10449 10446 10442 10438 10434 10429 10424 10420 10416 10413 10410 10407 10403 10399 10396 10390 10385 10381 10376 10371 10365 10360 10355 10350 10347 10341 10334 10327 10322 10317 10311 10303 10297 10291 10285 10280 10272 10266 10261 10252 10247 10246 10244 10249 10257 10248 10241 10248 10244 10232 10235 10235 10224 10226 10231 10225 10223 10228 10229 10230 10232 10236 10241
10522 10520 10518 10514 10509 10504 10497 10491 10486 10482 10479 10477 10474 10472 10469 10466 10461 10457 10452 10448 10444 10440 10436 10432 10429 10425 10420 10415 10411 10406 10402 10398 10395 10393 10390 10386 10382 10377 10371 10367 10362 10357 10352 10347 10342 10337 10333 10328 10321 10314 10308 10303 10296 10288 10283 10277 10270 10265 10260 10252 10247 10240 10230 10226 10227 10226 10232 10235 10223 10220 10225 10215 10210 10213 10206 10205 10211 10206 10203 10207 10209 10211 10214 10217 10223
10511 10508 10506 10502 10498 10494 10488 10481 10475 10470 10466 10463 10461 10459 10456 10452 10448 10444 10439 10435 10431 10427 10422 10419 10415 10411 10406 10402 10397 10392 10388 10385 10382 10379 10376 10373 10369 10363 10358 10354 10349 10344 10339 10334 10329 10324 10319 10314 10308 10302 10296 10290 10283 10275 10268 10264 10256 10249 10245 10238 10230 10227 10218 10209 10209 10208 10208 10216 10209 10198 10203 10200 10188 10188 10187 10186 10190 10187 10183 10186 10189 10192 10196 10198 10204
10498 10495 10493 10490 10487 10483 10477 10471 10464 10459 10454 10450 10448 10445 10441 10438 10433 10429 10426 10422 10417 10413 10409 10405 10402 10398 10393 10388 10384 10379 10375 10373 10370 10367 10363 10360 10355 10350 10346 10341 10336 10331 10327 10322 10316 10311 10306 10301 10295 10289 10283 10277 10269 10262 10255 10249 10244 10236 10229 10223 10213 10208 10205 10196 10192 10191 10189 10193 10191 10180 10180 10181 10171 10166 10166 10165 10169 10168 10165 10167 10169 10173 10178 10181 10186
10485 10482 10480 10477 10474 10470 10465 10460 10454 10448 10443 10439 10435 10431 10427 10422 10418 10415 10411 10408 10404 10399 10395 10391 10388 10384 10380 10375 10370 10366 10363 10361 10358 10354 10351 10347 10342 10338 10333 10328 10323 10318 10314 10309 10303 10298 10293 10288 10282 10275 10269 10263 10255 10248 10243 10236 10231 10224 10215 10208 10200 10192 10189 10185 10178 10176 10173 10169 10168 10163 10161 10159 10152 10147 10145 10146 10149 10150 10149 10150 10152 10156 10161 10164 10169
10471 10469 10466 10464 10460 10456 10452 10447 10442 10437 10432 10427 10422 10418 10414 10409 10404 10400 10397 10393 10390 10386 10382 10378 10374 10370 10366 10361 10357 10353 10351 10348 10346 10342 10338 10334 10329 10325 10321 10315 10311 10306 10301 10296 10291 10286 10280 10274 10268 10262 10254 10248 10241 10233 10229 10224 10217 10211 10202 10193 10185 10178 10173 10169 10164 10161 10157 10150 10145 10145 10144 10140 10134 10128 10127 10128 10131 10132 10132 10134 10137 10140 10144 10148 10153
10458 10456 10454 10451 10447 10443 10439 10434 10429 10424 10419 10415 10410 10406 10401 10396 10391 10386 10382 10379 10376 10372 10369 10364 10360 10356 10351 10347 10344 10340 10338 10335 10333 10330 10325 10321 10317 10313 10309 10304 10299 10294 10289 10284 10278 10272 10267 10260 10253 10248 10240 10233 10227 10219 10214 10210 10204 10197 10188 10177 10169 10163 10158 10154 10150 10146 10143 10135 10129 10128 10128 10124 10117 10112 10111 10113 10114 10115 10116 10120 10123 10125 10129 10134 10139
10445 10443 10440 10437 10433 10429 10425 10420 10415 10410 10406 10402 10397 10393 10388 10383 10378 10373 10369 10365 10362 10359 10355 10351 10346 10342 10337 10333 10330 10327 10325 10322 10320 10317 10312 10308 10304 10301 10297 10292 10287 10282 10277 10271 10265 10258 10252 10246 10238 10232 10226 10219 10212 10207 10202 10197 10192 10187 10178 10167 10157 10151 10147 10143 10140 10136 10131 10125 10118 10115 10114 10108 10101 10098 10098 10099 10100 10099 10101 10108 10111 10110 10113 10120 10124
10431 10429 10426 10423 10418 10414 10410 10404 10400 10396 10392 10388 10384 10379 10375 10369 10365 10361 10356 10352 10348 10345 10341 10337 10334 10329 10324 10320 10316 10314 10312 10309 10307 10303 10298 10295 10292 10288 10285 10280 10274 10270 10264 10257 10251 10244 10236 10231 10224 10217 10211 10205 10198 10193 10188 10183 10177 10172 10166 10157 10148 10141 10138 10134 10130 10126 10121 10116 10109 10103 10101 10094 10086 10086 10085 10085 10087 10087 10087 10094 10100 10097 10098 10105 10109
10417 10414 10411 10407 10403 10398 10393 10389 10385 10381 10378 10374 10369 10365 10360 10355 10351 10347 10343 10339 10335 10332 10328 10324 10321 10317 10312 10308 10304 10300 10299 10296 10293 10289 10285 10282 10279 10276 10271 10266 10261 10256 10251 10244 10237 10229 10222 10216 10211 10203 10197 10191 10186 10180 10175 10169 10162 10154 10147 10139 10130 10124 10121 10119 10116 10112 10109 10107 10101 10092 10088 10080 10073 10073 10073 10070 10073 10076 10073 10078 10086 10086 10085 10091 10095
10402 10398 10395 10390 10386 10381 10377 10373 10370 10367 10363 10359 10354 10350 10345 10341 10337 10333 10329 10326 10322 10319 10315 10311 10307 10303 10299 10295 10291 10287 10285 10283 10280 10275 10272 10269 10267 10264 10258 10253 10248 10241 10236 10230 10222 10215 10209 10202 10197 10191 10184 10179 10174 10168 10163 10157 10149 10140 10131 10123 10114 10106 10101 10097 10093 10090 10091 10094 10091 10081 10073 10067 10061 10060 10060 10057 10059 10063 10061 10064 10071 10073 10072 10078 10082
10385 10381 10377 10372 10368 10364 10361 10358 10354 10351 10347 10343 10339 10335 10331 10326 10323 10319 10315 10312 10308 10304 10300 10297 10293 10290 10286 10281 10277 10273 10271 10270 10266 10261 10259 10256 10253 10250 10245 10239 10234 10228 10221 10216 10208 10201 10196 10191 10185 10179 10172 10167 10161 10156 10152 10147 10139 10129 10119 10110 10102 10094 10087 10079 10071 10068 10071 10076 10077 10069 10059 10054 10050 10046 10045 10047 10048 10049 10049 10051 10057 10061 10061 10064 10069
10367 10363 10358 10354 10351 10348 10345 10342 10338 10335 10331 10328 10324 10320 10316 10312 10308 10304 10301 10297 10293 10289 10285 10282 10279 10276 10273 10268 10263 10259 10257 10255 10252 10247 10245 10242 10238 10235 10231 10225 10220 10214 10207 10201 10194 10188 10182 10178 10175 10168 10159 10153 10148 10142 10139 10136 10130 10121 10109 10099 10092 10085 10077 10066 10055 10052 10053 10056 10059 10056 10046 10042 10040 10033 10031 10036 10038 10036 10037 10040 10045 10050 10050 10051 10056
10349 10345 10340 10337 10335 10332 10329 10325 10321 10318 10315 10312 10309 10305 10300 10297 10293 10289 10285 10281 10277 10274 10270 10268 10265 10262 10259 10255 10250 10246 10243 10240 10237 10233 10230 10228 10225 10221 10217 10212 10206 10200 10193 10186 10179 10174 10169 10165 10162 10157 10149 10140 10133 10128 10124 10121 10118 10111 10101 10092 10084 10077 10069 10058 10046 10041 10040 10039 10042 10042 10035 10031 10028 10021 10017 10023 10027 10025 10026 10030 10035 10039 10039 10040 10044
10331 10326 10323 10321 10319 10316 10312 10309 10306 10303 10300 10297 10294 10291 10287 10283 10279 10274 10271 10267 10263 10260 10256 10254 10251 10248 10245 10242 10236 10231 10228 10225 10221 10219 10216 10213 10210 10207 10203 10198 10193 10186 10179 10172 10166 10160 10155 10152 10149 10144 10137 10128 10119 10112 10107 10104 10102 10098 10092 10084 10075 10066 10059 10048 10038 10033 10030 10027 10028 10028 10023 10018 10016 10011 10006 10009 10015 10015 10014 10020 10025 10027 10029 10030 10032
10313 10309 10307 10306 10303 10300 10297 10294 10291 10288 10285 10282 10279 10277 10273 10269 10265 10261 10257 10254 10250 10246 10244 10240 10237 10234 10230 10227 10222 10216 10213 10210 10206 10203 10201 10198 10195 10192 10189 10185 10179 10173 10167 10160 10153 10146 10141 10138 10135 10131 10125 10117 10107 10098 10090 10086 10085 10082 10078 10074 10065 10055 10046 10036 10028 10022 10019 10018 10017 10014 10011 10006 10004 10001 9997 9999 10004 10004 10005 10012 10014 10016 10019 10020 10021
10296 10293 10292 10290 10288 10285 10282 10279 10277 10274 10272 10269 10266 10263 10259 10255 10251 10247 10244 10241 10237 10233 10230 10226 10222 10219 10215 10211 10207 10201 10198 10195 10192 10189 10186 10183 10181 10178 10175 10171 10166 10162 10156 10147 10140 10134 10127 10122 10119 10117 10113 10105 10095 10086 10077 10071 10069 10067 10064 10062 10055 10044 10035 10027 10018 10010 10007 10008 10006 10003 10000 9995 9992 9991 9989 9990 9993 9993 9998 10003 10003 10006 10010 10009 10011
10280 10278 10278 10276 10273 10271 10267 10265 10263 10260 10257 10255 10252 10249 10246 10241 10238 10234 10231 10228 10224 10220 10217 10212 10208 10204 10200 10197 10193 10188 10184 10181 10178 10175 10172 10169 10168 10165 10162 10159 10155 10150 10144 10135 10127 10121 10115 10109 10103 10100 10098 10091 10082 10073 10063 10056 10054 10053 10051 10048 10043 10034 10025 10017 10008 10000 9997 9996 9993 9991 9989 9985 9983 9981 9980 9982 9983 9984 9990 9994 9994 9997 10000 9999 10002
10265 10263 10263 10262 10259 10256 10253 10250 10248 10245 10243 10241 10238 10235 10232 10228 10225 10222 10218 10215 10212 10208 10205 10200 10195 10191 10187 10184 10181 10176 10172 10168 10165 10162 10159 10157 10156 10154 10150 10147 10143 10138 10132 10124 10116 10110 10104 10098 10091 10085 10081 10075 10066 10058 10049 10041 10038 10039 10037 10034 10030 10024 10016 10006 9998 9992 9989 9985 9981 9979 9977 9974 9974 9973 9971 9973 9974 9976 9982 9985 9984 9988 9990 9990 9996
10251 10249 10249 10247 10244 10241 10238 10235 10232 10229 10227 10226 10224 10221 10219 10215 10212 10209 10205 10201 10198 10195 10191 10186 10182 10178 10174 10170 10167 10163 10159 10156 10152 10150 10147 10145 10143 10141 10137 10133 10130 10126 10119 10112 10107 10102 10095 10089 10081 10073 10066 10060 10052 10044 10036 10028 10024 10025 10023 10017 10013 10011 10005 9996 9987 9982 9980 9976 9971 9969 9966 9964 9965 9965 9963 9964 9966 9970 9974 9975 9975 9978 9981 9984 9990
10237 10235 10233 10232 10229 10226 10223 10220 10216 10214 10212 10210 10208 10206 10204 10201 10198 10194 10191 10188 10185 10181 10177 10172 10167 10164 10160 10156 10153 10150 10146 10144 10141 10138 10135 10132 10129 10126 10123 10120 10117 10114 10108 10101 10096 10093 10088 10081 10074 10065 10056 10048 10040 10032 10024 10017 10013 10012 10009 10002 9997 9996 9993 9986 9979 9972 9968 9965 9962 9959 9957 9956 9956 9956 9955 9956 9959 9963 9966 9965 9965 9969 9973 9977 9983
10223 10221 10219 10217 10214 10211 10208 10205 10202 10199 10196 10194 10192 10190 10188 10185 10182 10179 10176 10174 10171 10167 10162 10157 10153 10150 10147 10143 10140 10137 10134 10132 10130 10126 10122 10119 10115 10112 10110 10106 10103 10101 10097 10092 10086 10081 10077 10071 10064 10056 10048 10040 10031 10022 10013 10007 10004 10002 9997 9990 9984 9982 9979 9974 9970 9965 9959 9955 9952 9950 9949 9948 9947 9947 9948 9949 9952 9956 9957 9955 9956 9960 9965 9969 9975
10208 10206 10204 10201 10199 10197 10194 10191 10189 10186 10183 10179 10177 10175 10173 10170 10167 10165 10162 10160 10157 10153 10148 10144 10140 10136 10133 10130 10127 10124 10122 10119 10117 10113 10109 10106 10102 10099 10096 10093 10091 10088 10085 10081 10076 10070 10064 10059 10053 10046 10038 10030 10022 10013 10003 9997 9995 9993 9988 9980 9973 9970 9968 9963 9959 9955 9951 9946 9944 9942 9940 9940 9939 9939 9940 9942 9945 9947 9947 9946 9948 9953 9958 9963 9969
10193 10191 10188 10186 10185 10184 10181 10179 10176 10174 10170 10166 10163 10161 10159 10156 10152 10150 10149 10146 10143 10139 10134 10130 10127 10123 10119 10116 10114 10112 10109 10106 10103 10100 10096 10093 10090 10086 10083 10080 10078 10075 10072 10068 10063 10057 10052 10046 10040 10034 10027 10019 10011 10002 9993 9987 9983 9981 9977 9972 9965 9959 9956 9953 9949 9945 9942 9938 9935 9934 9932 9932 9932 9931 9933 9935 9937 9938 9938 9937 9940 9946 9952 9957 9962
10177 10175 10173 10172 10171 10170 10168 10165 10162 10160 10157 10152 10149 10147 10145 10142 10139 10136 10134 10132 10129 10125 10121 10117 10113 10110 10106 10104 10101 10099 10096 10093 10090 10087 10084 10080 10077 10074 10071 10068 10065 10062 10059 10054 10048 10043 10038 10033 10028 10021 10013 10006 9998 9991 9983 9976 9972 9968 9965 9962 9957 9950 9946 9943 9940 9936 9932 9929 9927 9926 9925 9924 9924 9924 9925 9927 9929 9930 9929 9930 9934 9941 9946 9951 9956
10159 10158 10157 10156 10156 10155 10154 10151 10148 10146 10143 10139 10136 10134 10131 10129 10126 10123 10120 10118 10115 10112 10108 10104 10101 10098 10095 10092 10089 10086 10084 10080 10077 10074 10071 10068 10065 10062 10059 10057 10053 10049 10045 10040 10034 10029 10024 10019 10014 10008 10000 9993 9986 9979 9973 9968 9963 9958 9956 9954 9949 9942 9937 9935 9931 9927 9924 9921 9919 9918 9918 9917 9917 9917 9918 9920 9921 9922 9922 9924 9929 9936 9941 9945 9949
10142 10141 10141 10141 10141 10140 10139 10137 10134 10132 10129 10126 10123 10121 10119 10116 10113 10110 10107 10104 10101 10099 10095 10092 10089 10086 10083 10080 10077 10074 10071 10068 10064 10061 10058 10055 10053 10050 10047 10044 10041 10037 10033 10027 10021 10016 10011 10006 10001 9996 9989 9981 9973 9967 9962 9956 9951 9947 9945 9944 9940 9933 9928 9926 9924 9919 9915 9913 9912 9911 9911 9910 9910 9910 9911 9913 9914 9914 9915 9918 9924 9931 9935 9940 9943
10125 10125 10125 10126 10126 10125 10124 10122 10120 10118 10116 10113 10111 10109 10106 10104 10101 10097 10094 10091 10089 10086 10083 10079 10076 10074 10071 10068 10065 10063 10060 10056 10053 10049 10046 10043 10041 10039 10036 10033 10030 10026 10022 10017 10011 10005 10000 9995 9991 9984 9977 9969 9962 9956 9951 9945 9938 9934 9933 9934 9931 9924 9918 9916 9915 9912 9908 9906 9905 9904 9904 9903 9903 9904 9905 9905 9906 9908 9909 9913 9919 9925 9929 9933 9937
10109 10109 10110 10111 10111 10110 10109 10107 10105 10104 10102 10100 10098 10096 10094 10092 10088 10085 10082 10079 10077 10074 10070 10066 10063 10061 10058 10056 10053 10051 10048 10045 10041 10038 10035 10032 10030 10028 10025 10022 10019 10015 10011 10006 10002 9997 9991 9985 9981 9975 9966 9958 9952 9947 9943 9937 9929 9923 9920 9921 9921 9917 9910 9907 9906 9904 9901 9899 9898 9897 9897 9897 9897 9897 9898 9899 9900 9902 9904 9908 9914 9919 9923 9927 9931
10094 10094 10095 10095 10095 10095 10094 10093 10091 10090 10088 10086 10084 10083 10082 10079 10076 10073 10070 10067 10065 10062 10058 10055 10052 10049 10047 10044 10042 10040 10037 10034 10030 10026 10023 10021 10019 10017 10014 10011 10008 10004 9999 9995 9991 9987 9981 9975 9970 9963 9956 9948 9942 9939 9936 9930 9922 9916 9912 9909 9910 9908 9903 9899 9897 9895 9894 9892 9891 9891 9891 9890 9890 9891 9892 9893 9894 9896 9899 9904 9909 9914 9918 9921 9925
10080 10079 10079 10079 10079 10079 10079 10079 10078 10076 10074 10073 10071 10070 10069 10067 10063 10061 10058 10055 10053 10050 10047 10044 10041 10038 10035 10033 10032 10029 10027 10023 10019 10015 10011 10009 10007 10005 10003 10000 9996 9992 9988 9984 9979 9975 9970 9964 9958 9952 9944 9937 9932 9930 9927 9921 9915 9910 9905 9901 9899 9898 9895 9891 9889 9888 9887 9885 9885 9885 9884 9884 9884 9885 9886 9887 9889 9891 9894 9899 9904 9909 9912 9916 9921
10065 10064 10064 10064 10064 10065 10066 10066 10066 10063 10061 10059 10058 10057 10057 10054 10051 10049 10046 10044 10041 10038 10035 10033 10031 10027 10024 10022 10020 10018 10015 10012 10009 10005 10001 9997 9995 9992 9991 9988 9985 9981 9977 9973 9969 9964 9959 9953 9948 9942 9935 9927 9922 9920 9917 9912 9907 9902 9898 9894 9890 9888 9887 9884 9882 9880 9880 9879 9878 9878 9878 9878 9879 9879 9880 9882 9884 9885 9889 9895 9900 9904 9907 9911 9917
10050 10049 10049 10050 10051 10052 10053 10053 10052 10049 10047 10046 10045 10045 10044 10042 10039 10037 10035 10032 10029 10026 10024 10022 10019 10016 10013 10010 10008 10006 10003 10001 9997 9994 9990 9986 9983 9980 9978 9976 9974 9970 9966 9962 9958 9953 9948 9942 9937 9931 9924 9917 9913 9911 9907 9901 9898 9895 9891 9887 9882 9879 9878 9877 9875 9874 9873 9872 9872 9872 9872 9872 9873 9874 9875 9877 9878 9881 9885 9891 9896 9899 9902 9906 9913
10038 10037 10038 10039 10041 10041 10041 10040 10038 10036 10034 10033 10032 10032 10031 10029 10027 10025 10022 10020 10017 10015 10013 10011 10008 10006 10003 10000 9997 9994 9992 9989 9986 9982 9978 9975 9972 9969 9967 9964 9962 9960 9956 9952 9947 9943 9937 9931 9924 9918 9912 9906 9903 9902 9897 9892 9889 9886 9883 9879 9875 9872 9870 9869 9868 9868 9866 9866 9866 9866 9866 9866 9867 9868 9870 9872 9874 9876 9881 9887 9891 9894 9897 9903 9910
10028 10028 10028 10030 10032 10032 10030 10027 10025 10023 10022 10021 10020 10019 10017 10016 10014 10011 10009 10007 10005 10003 10001 9999 9997 9995 9992 9988 9985 9983 9981 9978 9974 9970 9967 9963 9960 9958 9955 9953 9950 9947 9943 9939 9935 9930 9925 9919 9913 9907 9902 9897 9894 9892 9889 9884 9881 9878 9875 9871 9867 9865 9863 9862 9862 9861 9860 9860 9860 9860 9860 9860 9861 9863 9865 9867 9869 9873 9878 9883 9886 9889 9893 9900 9908
10019 10018 10018 10020 10022 10021 10018 10015 10013 10012 10011 10009 10008 10006 10004 10004 10002 9998 9996 9994 9992 9990 9989 9987 9986 9984 9981 9977 9974 9971 9969 9966 9963 9959 9955 9952 9949 9946 9943 9940 9937 9933 9930 9926 9922 9918 9913 9909 9903 9898 9892 9888 9885 9882 9879 9875 9873 9870 9868 9863 9860 9857 9856 9855 9855 9855 9854 9854 9854 9854 9854 9854 9856 9858 9860 9862 9865 9869 9874 9878 9882 9885 9891 9898 9906
10008 10007 10006 10007 10007 10006 10005 10004 10002 10000 9998 9996 9994 9993 9992 9991 9990 9987 9984 9981 9980 9978 9976 9975 9974 9972 9969 9965 9962 9960 9957 9954 9950 9947 9944 9940 9937 9934 9931 9928 9925 9921 9918 9915 9912 9907 9903 9898 9893 9887 9883 9879 9876 9872 9868 9866 9864 9862 9859 9856 9853 9850 9848 9848 9849 9849 9848 9849 9848 9848 9848 9849 9850 9853 9856 9858 9861 9866 9870 9874 9878 9883 9889 9898 9905
9994 9994 9993 9992 9991 9989 9990 9990 9989 9988 9985 9983 9981 9980 9979 9978 9978 9976 9973 9970 9968 9966 9964 9963 9962 9960 9957 9953 9950 9948 9946 9943 9939 9935 9932 9928 9925 9921 9918 9916 9913 9911 9909 9906 9902 9898 9893 9887 9882 9877 9873 9870 9867 9863 9858 9856 9856 9854 9851 9848 9846 9844 9842 9842 9842 9843 9843 9843 9843 9842 9842 9843 9846 9849 9851 9854 9857 9862 9866 9871 9875 9880 9888 9897 9903
9979 9979 9979 9977 9975 9974 9974 9975 9975 9974 9972 9970 9968 9967 9965 9965 9965 9964 9961 9959 9957 9955 9952 9951 9949 9946 9943 9940 9938 9936 9934 9931 9927 9924 9921 9917 9914 9910 9907 9905 9903 9901 9899 9896 9893 9888 9882 9876 9870 9866 9863 9860 9857 9854 9850 9848 9847 9846 9844 9840 9838 9837 9836 9835 9836 9836 9837 9837 9837 9837 9837 9838 9841 9844 9847 9850 9854 9858 9863 9868 9872 9878 9886 9894 9900
9962 9963 9962 9961 9959 9960 9960 9960 9959 9958 9957 9956 9955 9954 9953 9952 9952 9951 9949 9947 9945 9943 9941 9938 9935 9932 9929 9927 9926 9924 9921 9918 9916 9914 9911 9907 9904 9901 9898 9895 9893 9891 9889 9886 9882 9877 9871 9865 9860 9856 9854 9852 9848 9844 9842 9840 9839 9838 9836 9833 9831 9830 9830 9829 9830 9830 9831 9832 9832 9831 9832 9833 9836 9840 9843 9846 9850 9855 9860 9865 9870 9875 9883 9890 9896
9946 9947 9947 9946 9945 9946 9946 9944 9943 9942 9941 9942 9942 9942 9941 9940 9939 9938 9936 9935 9933 9931 9928 9925 9922 9919 9917 9915 9913 9911 9909 9907 9905 9902 9900 9896 9893 9890 9888 9886 9884 9882 9879 9876 9872 9867 9861 9855 9850 9847 9845 9843 9840 9836 9833 9832 9832 9830 9828 9826 9824 9823 9823 9823 9824 9824 9825 9826 9826 9826 9827 9829 9832 9836 9839 9842 9846 9851 9857 9862 9867 9872 9880 9887 9892
9933 9933 9932 9931 9931 9931 9930 9929 9928 9927 9927 9928 9929 9929 9928 9927 9926 9925 9924 9922 9920 9917 9915 9912 9910 9908 9905 9904 9902 9899 9897 9896 9893 9891 9888 9885 9881 9879 9877 9876 9874 9872 9869 9866 9862 9857 9851 9845 9842 9839 9837 9834 9831 9827 9825 9824 9824 9822 9820 9819 9817 9817 9817 9817 9818 9819 9820 9821 9820 9821 9822 9824 9827 9831 9835 9838 9843 9848 9854 9859 9864 9870 9877 9884 9889
9919 9918 9916 9916 9915 9915 9915 9914 9914 9914 9914 9914 9915 9915 9915 9914 9913 9912 9910 9909 9907 9904 9902 9900 9898 9896 9894 9892 9890 9888 9887 9885 9882 9880 9877 9873 9870 9867 9866 9865 9864 9862 9860 9856 9852 9847 9842 9836 9832 9831 9829 9826 9823 9819 9816 9815 9815 9815 9813 9812 9811 9810 9811 9812 9812 9813 9814 9815 9815 9816 9818 9820 9823 9827 9830 9834 9840 9845 9850 9855 9861 9867 9874 9881 9887
9902 9901 9900 9900 9900 9900 9901 9901 9901 9901 9901 9901 9901 9901 9901 9900 9899 9898 9897 9895 9894 9892 9889 9887 9885 9883 9882 9880 9879 9877 9875 9873 9871 9868 9865 9862 9860 9857 9855 9854 9852 9851 9849 9846 9841 9837 9831 9826 9823 9821 9819 9817 9815 9812 9809 9807 9807 9807 9806 9805 9804 9804 9804 9805 9806 9807 9809 9809 9810 9811 9813 9816 9820 9823 9826 9830 9836 9842 9846 9852 9858 9865 9872 9878 9885
9886 9887 9886 9887 9887 9887 9888 9888 9888 9888 9888 9888 9888 9888 9887 9886 9885 9885 9884 9882 9880 9878 9876 9874 9873 9872 9870 9869 9867 9865 9863 9861 9859 9857 9854 9852 9850 9848 9846 9844 9842 9840 9838 9834 9830 9826 9821 9816 9813 9811 9808 9806 9805 9804 9801 9799 9799 9799 9798 9798 9797 9797 9798 9799 9800 9802 9803 9804 9805 9807 9809 9813 9816 9818 9822 9827 9832 9838 9843 9849 9856 9862 9868 9875 9882
9872 9873 9874 9874 9874 9874 9875 9875 9875 9875 9875 9875 9874 9874 9873 9872 9872 9871 9870 9869 9867 9866 9864 9863 9862 9860 9858 9857 9855 9853 9851 9849 9847 9845 9843 9842 9841 9839 9837 9834 9832 9829 9826 9823 9819 9815 9811 9807 9805 9802 9799 9796 9796 9795 9793 9791 9791 9791 9791 9791 9791 9791 9792 9793 9795 9796 9798 9799 9800 9802 9805 9809 9812 9815 9818 9823 9828 9834 9840 9847 9853 9859 9865 9872 9879
9859 9860 9860 9860 9860 9860 9860 9861 9861 9861 9862 9861 9860 9860 9860 9860 9859 9858 9857 9856 9855 9854 9852 9851 9849 9848 9846 9844 9843 9841 9839 9837 9835 9834 9833 9832 9831 9829 9827 9825 9822 9819 9816 9812 9808 9805 9802 9799 9796 9793 9790 9788 9787 9786 9784 9784 9784 9784 9784 9784 9784 9785 9786 9787 9789 9791 9793 9794 9795 9798 9802 9806 9808 9811 9814 9819 9824 9830 9836 9843 9850 9857 9863 9869 9876
9845 9845 9845 9846 9846 9846 9846 9847 9847 9848 9848 9848 9848 9848 9848 9847 9847 9846 9845 9844 9843 9842 9841 9839 9837 9836 9834 9832 9831 9829 9827 9825 9823 9823 9822 9822 9821 9819 9817 9814 9811 9808 9804 9801 9798 9796 9794 9791 9788 9785 9782 9780 9779 9778 9777 9776 9776 9777 9777 9778 9778 9779 9780 9781 9783 9786 9787 9789 9791 9794 9798 9802 9804 9807 9811 9815 9821 9826 9833 9840 9847 9854 9860 9867 9873
9830 9831 9831 9832 9832 9832 9833 9834 9835 9835 9836 9836 9836 9836 9835 9835 9834 9834 9833 9832 9831 9830 9829 9827 9826 9824 9822 9820 9818 9816 9814 9813 9813 9812 9811 9811 9810 9808 9806 9804 9800 9797 9793 9790 9788 9786 9785 9782 9779 9776 9774 9772 9771 9770 9769 9769 9770 9770 9770 9771 9772 9773 9774 9775 9778 9780 9782 9784 9787 9790 9794 9797 9801 9804 9808 9812 9817 9823 9830 9837 9844 9850 9857 9864 9870
9817 9817 9818 9819 9820 9821 9822 9822 9822 9823 9823 9823 9823 9823 9823 9822 9822 9821 9821 9820 9819 9818 9817 9816 9814 9812 9810 9808 9806 9805 9803 9803 9802 9802 9801 9800 9799 9798 9796 9793 9790 9786 9782 9780 9778 9777 9776 9773 9770 9767 9766 9765 9764 9763 9762 9763 9763 9763 9763 9765 9766 9767 9768 9770 9772 9775 9777 9779 9782 9786 9790 9793 9796 9800 9804 9809 9814 9820 9827 9833 9840 9847 9854 9860 9867
9805 9805 9806 9807 9808 9809 9809 9809 9810 9810 9811 9811 9811 9811 9810 9810 9810 9809 9809 9809 9808 9806 9805 9804 9802 9800 9798 9796 9795 9794 9793 9792 9791 9791 9790 9789 9788 9787 9785 9782 9779 9775 9772 9771 9769 9768 9766 9764 9761 9759 9757 9757 9756 9755 9755 9756 9756 9756 9757 9758 9760 9761 9763 9764 9767 9770 9772 9775 9778 9782 9786 9790 9793 9796 9801 9805 9810 9817 9823 9830 9836 9843 9850 9857 9864